SWA4850 KATL-KFLL

Flight info

Callsign SWA4850
Flight time 1h 30m
Altitude 29000
Route SMLTZ3 WALET ZPLEN TEEKY3
Aircraft B738/M-SDE2E3FGHIRWXY/LB1

Departure

Time 2026-05-03 22:54
Airport Hartsfield Jackson Atlanta International Airport (KATL)

Arrival

Time 2026-05-04 00:24
Airport Fort Lauderdale Hollywood International Airport (KFLL)
Time Latitude Longitude Altitude Speed Heading
2026-05-03 22:20 33.63729 -84.42514 1005 ft 0 kts 270°
2026-05-03 22:38 33.63729 -84.42507 1006 ft 2 kts 269°
2026-05-03 22:38 33.63729 -84.42498 1005 ft 1 kts 269°
2026-05-03 22:38 33.63729 -84.42475 1006 ft 4 kts 267°
2026-05-03 22:39 33.63734 -84.42437 1006 ft 5 kts 233°
2026-05-03 22:39 33.63764 -84.42419 1006 ft 1 kts 186°
2026-05-03 22:39 33.63770 -84.42418 1006 ft 0 kts 179°
2026-05-03 22:39 33.63768 -84.42418 1006 ft 0 kts 179°
2026-05-03 22:48 33.63734 -84.42417 1006 ft 10 kts 180°
2026-05-03 22:48 33.63654 -84.42365 1006 ft 23 kts 100°
2026-05-03 22:48 33.63654 -84.42161 1006 ft 27 kts 91°
2026-05-03 22:49 33.63655 -84.41897 1005 ft 35 kts 91°
2026-05-03 22:49 33.63655 -84.41611 1005 ft 34 kts 90°
2026-05-03 22:49 33.63657 -84.41335 1005 ft 32 kts 89°
2026-05-03 22:49 33.63657 -84.41124 1005 ft 13 kts 90°
2026-05-03 22:50 33.63640 -84.41049 1005 ft 2 kts 132°
2026-05-03 22:50 33.63630 -84.41042 1005 ft 4 kts 158°
2026-05-03 22:50 33.63579 -84.41040 1005 ft 0 kts 177°
2026-05-03 22:51 33.63574 -84.41022 1005 ft 3 kts 79°
2026-05-03 22:51 33.63586 -84.40942 1005 ft 4 kts 108°
2026-05-03 22:51 33.63542 -84.40908 1006 ft 16 kts 173°
2026-05-03 22:52 33.63471 -84.40961 1006 ft 0 kts 269°
2026-05-03 22:53 33.63473 -84.41115 1004 ft 57 kts 270°
2026-05-03 22:53 33.63473 -84.41926 1006 ft 135 kts 270°
2026-05-03 22:53 33.63468 -84.43310 1135 ft 192 kts 269°
2026-05-03 22:53 33.63427 -84.45050 1626 ft 220 kts 270°
2026-05-03 22:54 33.63431 -84.46998 1953 ft 254 kts 271°
2026-05-03 22:54 33.63451 -84.49206 2649 ft 267 kts 271°
2026-05-03 22:54 33.63455 -84.51461 3661 ft 263 kts 271°
2026-05-03 22:54 33.63452 -84.53594 4714 ft 256 kts 271°
2026-05-03 22:55 33.63452 -84.55756 5481 ft 262 kts 271°
2026-05-03 22:55 33.63453 -84.57945 6363 ft 262 kts 271°
2026-05-03 22:55 33.63453 -84.60161 7116 ft 267 kts 271°
2026-05-03 22:55 33.63454 -84.62397 7927 ft 270 kts 271°
2026-05-03 22:56 33.63213 -84.64639 8693 ft 276 kts 250°
2026-05-03 22:56 33.62133 -84.66552 9488 ft 283 kts 225°
2026-05-03 22:56 33.60516 -84.67902 10230 ft 290 kts 213°
2026-05-03 22:56 33.58742 -84.69086 10930 ft 295 kts 207°
2026-05-03 22:57 33.56726 -84.69584 11647 ft 304 kts 180°
2026-05-03 22:57 33.54611 -84.69277 12420 ft 307 kts 173°
2026-05-03 22:57 33.52496 -84.68842 13140 ft 310 kts 173°
2026-05-03 22:57 33.50353 -84.68396 13858 ft 314 kts 173°
2026-05-03 22:58 33.48202 -84.67970 14518 ft 316 kts 174°
2026-05-03 22:58 33.46011 -84.67550 15194 ft 318 kts 174°
2026-05-03 22:58 33.43812 -84.67134 15829 ft 321 kts 173°
2026-05-03 22:58 33.41677 -84.66252 16421 ft 332 kts 151°
2026-05-03 22:59 33.39831 -84.64443 16624 ft 354 kts 139°
2026-05-03 22:59 33.38023 -84.62317 16778 ft 374 kts 137°
2026-05-03 22:59 33.36155 -84.60056 16955 ft 390 kts 137°
2026-05-03 22:59 33.34228 -84.57718 17424 ft 398 kts 137°
2026-05-03 23:00 33.32267 -84.55353 18048 ft 400 kts 137°
2026-05-03 23:00 33.30318 -84.53024 18665 ft 402 kts 137°
2026-05-03 23:00 33.28331 -84.50664 19196 ft 405 kts 138°
2026-05-03 23:00 33.26318 -84.48285 19707 ft 408 kts 138°
2026-05-03 23:01 33.24280 -84.45883 20223 ft 412 kts 138°
2026-05-03 23:01 33.22230 -84.43473 20743 ft 415 kts 138°
2026-05-03 23:01 33.20171 -84.41053 21260 ft 418 kts 138°
2026-05-03 23:01 33.18091 -84.38611 21768 ft 420 kts 138°
2026-05-03 23:02 33.15999 -84.36154 22279 ft 423 kts 138°
2026-05-03 23:02 33.13886 -84.33677 22763 ft 427 kts 138°
2026-05-03 23:02 33.11759 -84.31183 23238 ft 430 kts 138°
2026-05-03 23:02 33.09620 -84.28676 23695 ft 433 kts 138°
2026-05-03 23:03 33.07489 -84.26181 24058 ft 436 kts 139°
2026-05-03 23:03 33.05311 -84.23633 24435 ft 439 kts 139°
2026-05-03 23:03 33.03123 -84.21074 24841 ft 441 kts 139°
2026-05-03 23:03 33.00914 -84.18520 25302 ft 440 kts 143°
2026-05-03 23:04 32.98406 -84.16550 25779 ft 427 kts 162°
2026-05-03 23:04 32.95641 -84.15373 26386 ft 419 kts 167°
2026-05-03 23:04 32.92883 -84.14275 26942 ft 417 kts 167°
2026-05-03 23:04 32.90132 -84.13184 27416 ft 417 kts 167°
2026-05-03 23:05 32.87378 -84.12082 27902 ft 416 kts 167°
2026-05-03 23:05 32.84678 -84.10990 28440 ft 414 kts 168°
2026-05-03 23:05 32.81949 -84.09876 28977 ft 412 kts 168°
2026-05-03 23:05 32.79223 -84.08762 29106 ft 418 kts 168°
2026-05-03 23:06 32.76460 -84.07631 29118 ft 419 kts 168°
2026-05-03 23:06 32.71009 -84.05386 29111 ft 409 kts 168°
2026-05-03 23:07 32.65639 -84.03185 29125 ft 412 kts 168°
2026-05-03 23:07 32.60196 -84.00960 29125 ft 414 kts 168°
2026-05-03 23:08 32.54693 -83.98714 29135 ft 425 kts 168°
2026-05-03 23:08 32.48985 -83.96388 29131 ft 441 kts 168°
2026-05-03 23:09 32.43095 -83.93982 29127 ft 454 kts 168°
2026-05-03 23:09 32.37049 -83.91517 29124 ft 465 kts 168°
2026-05-03 23:10 32.30825 -83.89150 29116 ft 472 kts 171°
2026-05-03 23:10 32.24525 -83.86948 29107 ft 471 kts 171°
2026-05-03 23:11 32.18243 -83.84739 29085 ft 471 kts 171°
2026-05-03 23:11 32.12074 -83.82533 29098 ft 453 kts 171°
2026-05-03 23:11 32.09105 -83.81460 29102 ft 439 kts 171°
2026-05-03 23:12 32.06178 -83.80412 29119 ft 438 kts 171°
2026-05-03 23:12 32.00347 -83.78341 29121 ft 437 kts 171°
2026-05-03 23:13 31.94560 -83.76286 29118 ft 437 kts 171°
2026-05-03 23:13 31.88737 -83.74215 29107 ft 436 kts 172°
2026-05-03 23:14 31.82921 -83.72147 29113 ft 436 kts 172°
2026-05-03 23:14 31.77117 -83.70087 29127 ft 436 kts 172°
2026-05-03 23:15 31.71302 -83.68025 29116 ft 436 kts 172°
2026-05-03 23:15 31.65544 -83.65925 29109 ft 428 kts 171°
2026-05-03 23:16 31.59919 -83.63746 29118 ft 425 kts 171°
2026-05-03 23:16 31.54284 -83.61566 29127 ft 427 kts 171°
2026-05-03 23:17 31.48667 -83.59408 29125 ft 428 kts 171°
2026-05-03 23:17 31.43002 -83.57239 29120 ft 428 kts 171°
2026-05-03 23:18 31.37338 -83.55073 29119 ft 427 kts 171°
2026-05-03 23:18 31.31686 -83.52914 29106 ft 426 kts 171°
2026-05-03 23:19 31.26089 -83.50780 29113 ft 425 kts 171°
2026-05-03 23:19 31.20471 -83.48642 29122 ft 424 kts 171°
2026-05-03 23:20 31.14863 -83.46511 29120 ft 424 kts 171°
2026-05-03 23:20 31.10196 -83.44739 29117 ft 424 kts 171°
2026-05-03 23:21 31.03671 -83.42262 29101 ft 423 kts 171°
2026-05-03 23:21 30.99004 -83.40494 29104 ft 424 kts 171°
2026-05-03 23:22 30.90566 -83.37302 29116 ft 424 kts 171°
2026-05-03 23:22 30.84939 -83.35176 29111 ft 425 kts 171°
2026-05-03 23:23 30.79352 -83.33067 29110 ft 425 kts 171°
2026-05-03 23:23 30.73720 -83.30944 29106 ft 425 kts 171°
2026-05-03 23:24 30.68126 -83.28605 29107 ft 433 kts 165°
2026-05-03 23:24 30.62641 -83.25612 29116 ft 437 kts 163°
2026-05-03 23:25 30.57203 -83.22554 29126 ft 437 kts 163°
2026-05-03 23:25 30.51711 -83.19539 29120 ft 436 kts 164°
2026-05-03 23:26 30.46211 -83.16571 29126 ft 435 kts 164°
2026-05-03 23:26 30.40739 -83.13637 29127 ft 434 kts 164°
2026-05-03 23:27 30.35245 -83.10697 29123 ft 434 kts 164°
2026-05-03 23:27 30.29764 -83.07766 29118 ft 434 kts 164°
2026-05-03 23:28 30.24285 -83.04839 29127 ft 434 kts 164°
2026-05-03 23:28 30.18805 -83.01915 29098 ft 433 kts 164°
2026-05-03 23:29 30.13325 -82.98994 29110 ft 434 kts 165°
2026-05-03 23:29 30.07834 -82.96072 29114 ft 435 kts 164°
2026-05-03 23:30 30.02328 -82.93145 29113 ft 436 kts 164°
2026-05-03 23:30 29.96840 -82.90230 29108 ft 437 kts 164°
2026-05-03 23:31 29.91313 -82.87298 29056 ft 437 kts 165°
2026-05-03 23:31 29.85795 -82.84373 29085 ft 436 kts 165°
2026-05-03 23:32 29.80299 -82.81465 29099 ft 437 kts 165°
2026-05-03 23:32 29.74776 -82.78547 29095 ft 437 kts 165°
2026-05-03 23:33 29.69245 -82.75627 29089 ft 436 kts 164°
2026-05-03 23:33 29.63720 -82.72714 29093 ft 436 kts 164°
2026-05-03 23:34 29.58217 -82.69814 29088 ft 432 kts 165°
2026-05-03 23:34 29.52809 -82.66966 29083 ft 426 kts 165°
2026-05-03 23:35 29.47430 -82.64141 29102 ft 425 kts 165°
2026-05-03 23:35 29.42036 -82.61317 29095 ft 427 kts 165°
2026-05-03 23:36 29.36644 -82.58489 29086 ft 425 kts 165°
2026-05-03 23:36 29.31286 -82.55681 29051 ft 420 kts 165°
2026-05-03 23:37 29.25976 -82.53011 29078 ft 408 kts 174°
2026-05-03 23:37 29.23264 -82.52605 29116 ft 385 kts 189°
2026-05-03 23:37 29.20590 -82.52612 29090 ft 385 kts 190°
2026-05-03 23:38 29.15248 -82.52669 29083 ft 388 kts 190°
2026-05-03 23:38 29.09836 -82.52705 29082 ft 390 kts 189°
2026-05-03 23:39 29.04388 -82.52716 29082 ft 392 kts 189°
2026-05-03 23:39 28.98919 -82.52714 29070 ft 393 kts 189°
2026-05-03 23:40 28.93435 -82.52711 29071 ft 394 kts 189°
2026-05-03 23:40 28.87946 -82.52706 29073 ft 393 kts 189°
2026-05-03 23:41 28.82505 -82.52702 29084 ft 393 kts 189°
2026-05-03 23:41 28.77044 -82.52699 29077 ft 392 kts 189°
2026-05-03 23:42 28.71589 -82.52696 29071 ft 390 kts 189°
2026-05-03 23:42 28.66160 -82.52693 29080 ft 390 kts 190°
2026-05-03 23:43 28.60713 -82.52692 29075 ft 391 kts 190°
2026-05-03 23:43 28.55266 -82.52690 29072 ft 391 kts 189°
2026-05-03 23:44 28.49863 -82.52687 29068 ft 392 kts 189°
2026-05-03 23:44 28.44403 -82.52683 29039 ft 392 kts 190°
2026-05-03 23:45 28.39004 -82.52918 29047 ft 376 kts 204°
2026-05-03 23:45 28.36661 -82.54043 29079 ft 359 kts 220°
2026-05-03 23:45 28.34768 -82.55808 29077 ft 349 kts 232°
2026-05-03 23:46 28.33017 -82.57721 29037 ft 358 kts 218°
2026-05-03 23:46 28.30622 -82.58715 29079 ft 379 kts 198°
2026-05-03 23:46 28.27948 -82.58910 29076 ft 392 kts 188°
2026-05-03 23:46 28.25188 -82.58447 29070 ft 409 kts 176°
2026-05-03 23:47 28.19699 -82.56703 29059 ft 414 kts 174°
2026-05-03 23:47 28.14160 -82.54852 29049 ft 414 kts 174°
2026-05-03 23:48 28.08582 -82.53038 29060 ft 421 kts 175°
2026-05-03 23:48 28.02897 -82.51231 29059 ft 429 kts 174°
2026-05-03 23:49 27.97144 -82.49402 29040 ft 429 kts 174°
2026-05-03 23:49 27.91410 -82.47580 29040 ft 427 kts 174°
2026-05-03 23:50 27.86658 -82.46075 29042 ft 426 kts 175°
2026-05-03 23:50 27.80014 -82.43974 29036 ft 423 kts 175°
2026-05-03 23:51 27.74343 -82.42185 29046 ft 423 kts 175°
2026-05-03 23:51 27.68712 -82.40411 29053 ft 423 kts 175°
2026-05-03 23:52 27.63032 -82.38622 29037 ft 423 kts 174°
2026-05-03 23:52 27.57358 -82.36836 29050 ft 423 kts 174°
2026-05-03 23:53 27.51675 -82.35049 29057 ft 424 kts 174°
2026-05-03 23:53 27.46012 -82.33270 29052 ft 424 kts 174°
2026-05-03 23:54 27.40330 -82.31487 29054 ft 424 kts 175°
2026-05-03 23:54 27.34755 -82.29058 29069 ft 441 kts 161°
2026-05-03 23:55 27.29422 -82.25556 29059 ft 444 kts 159°
2026-05-03 23:55 27.24096 -82.22037 29037 ft 443 kts 160°
2026-05-03 23:56 27.18745 -82.18606 29046 ft 442 kts 160°
2026-05-03 23:56 27.13417 -82.15235 29061 ft 443 kts 160°
2026-05-03 23:57 27.08028 -82.11829 29066 ft 444 kts 160°
2026-05-03 23:57 27.02573 -82.08388 29084 ft 457 kts 160°
2026-05-03 23:58 26.96968 -82.04839 29084 ft 473 kts 158°
2026-05-03 23:58 26.94324 -82.02516 28906 ft 494 kts 143°
2026-05-03 23:58 26.91959 -81.99712 28387 ft 492 kts 140°
2026-05-03 23:59 26.89687 -81.96878 28013 ft 484 kts 140°
2026-05-03 23:59 26.87453 -81.94101 27651 ft 476 kts 141°
2026-05-03 23:59 26.85237 -81.91408 27301 ft 465 kts 141°
2026-05-03 23:59 26.83052 -81.88805 26942 ft 451 kts 142°
2026-05-04 00:00 26.80926 -81.86300 26611 ft 437 kts 142°
2026-05-04 00:00 26.78860 -81.83871 26293 ft 424 kts 143°
2026-05-04 00:00 26.76875 -81.81535 25975 ft 413 kts 143°
2026-05-04 00:00 26.74905 -81.79235 25554 ft 405 kts 143°
2026-05-04 00:01 26.72970 -81.76986 25159 ft 397 kts 143°
2026-05-04 00:01 26.71064 -81.74774 24756 ft 390 kts 143°
2026-05-04 00:01 26.69188 -81.72602 24372 ft 389 kts 143°
2026-05-04 00:01 26.67301 -81.70417 23986 ft 390 kts 143°
2026-05-04 00:02 26.65420 -81.68235 23581 ft 390 kts 143°
2026-05-04 00:02 26.63536 -81.66049 23127 ft 390 kts 143°
2026-05-04 00:02 26.61727 -81.63769 22620 ft 395 kts 136°
2026-05-04 00:02 26.60071 -81.61345 22207 ft 397 kts 134°
2026-05-04 00:03 26.58444 -81.58838 21747 ft 398 kts 133°
2026-05-04 00:03 26.56829 -81.56338 21291 ft 395 kts 133°
2026-05-04 00:03 26.55220 -81.53873 20810 ft 388 kts 134°
2026-05-04 00:03 26.53635 -81.51475 20372 ft 381 kts 134°
2026-05-04 00:04 26.52064 -81.49124 19944 ft 374 kts 134°
2026-05-04 00:04 26.50513 -81.46816 19524 ft 368 kts 134°
2026-05-04 00:04 26.48983 -81.44549 19105 ft 363 kts 134°
2026-05-04 00:04 26.47466 -81.42305 18667 ft 361 kts 134°
2026-05-04 00:05 26.45948 -81.40062 18238 ft 364 kts 134°
2026-05-04 00:05 26.44421 -81.37805 17778 ft 365 kts 134°
2026-05-04 00:05 26.42889 -81.35539 17336 ft 366 kts 133°
2026-05-04 00:05 26.41358 -81.33274 16909 ft 366 kts 133°
2026-05-04 00:06 26.39786 -81.31047 16484 ft 364 kts 136°
2026-05-04 00:06 26.38177 -81.28904 16054 ft 356 kts 136°
2026-05-04 00:06 26.36588 -81.26816 15649 ft 349 kts 136°
2026-05-04 00:06 26.35032 -81.24766 15252 ft 343 kts 136°
2026-05-04 00:07 26.33523 -81.22765 14880 ft 340 kts 135°
2026-05-04 00:07 26.32004 -81.20744 14504 ft 341 kts 135°
2026-05-04 00:07 26.30480 -81.18711 14102 ft 341 kts 135°
2026-05-04 00:07 26.28972 -81.16696 13681 ft 336 kts 135°
2026-05-04 00:08 26.27483 -81.14720 13268 ft 329 kts 135°
2026-05-04 00:08 26.26016 -81.12789 12881 ft 323 kts 135°
2026-05-04 00:08 26.24580 -81.10901 12506 ft 317 kts 135°
2026-05-04 00:08 26.23156 -81.09032 12158 ft 316 kts 135°
2026-05-04 00:09 26.21730 -81.07159 11801 ft 317 kts 135°
2026-05-04 00:09 26.20302 -81.05285 11442 ft 318 kts 134°
2026-05-04 00:09 26.18887 -81.03425 11084 ft 319 kts 134°
2026-05-04 00:09 26.17449 -81.01536 10722 ft 320 kts 134°
2026-05-04 00:10 26.16005 -80.99640 10352 ft 321 kts 134°
2026-05-04 00:10 26.14726 -80.97594 9942 ft 329 kts 114°
2026-05-04 00:10 26.14197 -80.95156 9952 ft 317 kts 102°
2026-05-04 00:10 26.13818 -80.92777 9886 ft 307 kts 102°
2026-05-04 00:11 26.13451 -80.90458 9739 ft 301 kts 102°
2026-05-04 00:11 26.13082 -80.88166 9387 ft 302 kts 102°
2026-05-04 00:11 26.12705 -80.85863 9096 ft 302 kts 102°
2026-05-04 00:11 26.12326 -80.83570 8844 ft 300 kts 102°
2026-05-04 00:12 26.12075 -80.82064 8680 ft 299 kts 102°
2026-05-04 00:12 26.11697 -80.79795 8421 ft 297 kts 102°
2026-05-04 00:12 26.10953 -80.77746 8418 ft 279 kts 137°
2026-05-04 00:12 26.09380 -80.76604 8443 ft 272 kts 170°
2026-05-04 00:13 26.07528 -80.76596 8433 ft 267 kts 202°
2026-05-04 00:13 26.06023 -80.77701 8433 ft 258 kts 235°
2026-05-04 00:13 26.04741 -80.79054 8413 ft 262 kts 204°
2026-05-04 00:13 26.03197 -80.78326 7950 ft 288 kts 120°
2026-05-04 00:14 26.02816 -80.76084 6903 ft 314 kts 92°
2026-05-04 00:14 26.02933 -80.73723 6647 ft 303 kts 82°
2026-05-04 00:14 26.03074 -80.71409 6252 ft 298 kts 89°
2026-05-04 00:14 26.03231 -80.69125 5845 ft 294 kts 83°
2026-05-04 00:15 26.03477 -80.66882 5491 ft 288 kts 82°
2026-05-04 00:15 26.03721 -80.64715 5420 ft 279 kts 83°
2026-05-04 00:15 26.03949 -80.62584 5384 ft 275 kts 83°
2026-05-04 00:15 26.04163 -80.60485 5353 ft 274 kts 83°
2026-05-04 00:16 26.04368 -80.58397 5290 ft 277 kts 84°
2026-05-04 00:16 26.04569 -80.56267 5241 ft 273 kts 84°
2026-05-04 00:16 26.04759 -80.54218 5152 ft 260 kts 84°
2026-05-04 00:16 26.04938 -80.52275 5051 ft 246 kts 85°
2026-05-04 00:17 26.05106 -80.50432 4960 ft 232 kts 85°
2026-05-04 00:17 26.05264 -80.48698 4868 ft 219 kts 85°
2026-05-04 00:17 26.05414 -80.47044 4784 ft 220 kts 85°
2026-05-04 00:17 26.05583 -80.45219 4982 ft 251 kts 85°
2026-05-04 00:18 26.05762 -80.43227 4763 ft 261 kts 85°
2026-05-04 00:18 26.05938 -80.41274 4459 ft 254 kts 84°
2026-05-04 00:18 26.06110 -80.39350 4127 ft 242 kts 84°
2026-05-04 00:18 26.06267 -80.37590 3850 ft 214 kts 85°
2026-05-04 00:19 26.06406 -80.36028 3542 ft 191 kts 85°
2026-05-04 00:19 26.06540 -80.34632 3301 ft 174 kts 83°
2026-05-04 00:19 26.06660 -80.33371 3109 ft 154 kts 87°
2026-05-04 00:19 26.06688 -80.32239 2881 ft 138 kts 90°
2026-05-04 00:20 26.06686 -80.31150 2759 ft 148 kts 91°
2026-05-04 00:20 26.06680 -80.29984 2523 ft 149 kts 90°
2026-05-04 00:20 26.06673 -80.28870 2317 ft 139 kts 90°
2026-05-04 00:20 26.06666 -80.27825 2146 ft 134 kts 90°
2026-05-04 00:21 26.06659 -80.26781 1983 ft 136 kts 90°
2026-05-04 00:21 26.06652 -80.25725 1797 ft 135 kts 89°
2026-05-04 00:21 26.06646 -80.24696 1617 ft 133 kts 89°
2026-05-04 00:21 26.06639 -80.23652 1438 ft 134 kts 89°
2026-05-04 00:22 26.06633 -80.22630 1264 ft 134 kts 89°
2026-05-04 00:22 26.06627 -80.21492 1061 ft 134 kts 89°
2026-05-04 00:22 26.06620 -80.20465 902 ft 133 kts 88°
2026-05-04 00:22 26.06614 -80.19428 720 ft 133 kts 88°
2026-05-04 00:23 26.06608 -80.18396 542 ft 133 kts 88°
2026-05-04 00:23 26.06603 -80.17385 357 ft 133 kts 90°
2026-05-04 00:23 26.06594 -80.16359 202 ft 133 kts 89°
2026-05-04 00:23 26.06581 -80.15369 23 ft 119 kts 84°
2026-05-04 00:24 26.06582 -80.14804 17 ft 14 kts 91°
2026-05-04 00:24 26.06619 -80.14686 18 ft 18 kts 31°
2026-05-04 00:24 26.06682 -80.14699 17 ft 9 kts 306°
2026-05-04 00:24 26.06692 -80.14768 18 ft 9 kts 272°
2026-05-04 00:25 26.06694 -80.14837 20 ft 9 kts 268°
2026-05-04 00:25 26.06693 -80.14905 21 ft 10 kts 274°
2026-05-04 00:25 26.06694 -80.15021 22 ft 18 kts 265°
2026-05-04 00:25 26.06741 -80.15128 22 ft 17 kts 352°
2026-05-04 00:26 26.06856 -80.15133 22 ft 17 kts
2026-05-04 00:26 26.06969 -80.15130 26 ft 16 kts
2026-05-04 00:26 26.07070 -80.15100 24 ft 15 kts 38°
2026-05-04 00:26 26.07144 -80.15017 21 ft 15 kts 45°
2026-05-04 00:27 26.07147 -80.14921 21 ft 14 kts 111°
2026-05-04 00:27 26.07163 -80.14822 23 ft 13 kts 56°
2026-05-04 00:27 26.07220 -80.14722 20 ft 10 kts 56°
2026-05-04 00:27 26.07270 -80.14714 21 ft 0 kts 41°
2026-05-04 00:28 26.07289 -80.14691 21 ft 6 kts 45°
2026-05-04 00:28 26.07291 -80.14690 21 ft 0 kts 45°